BAW3 DTTA-LPPR

Flight info

Callsign BAW3
Flight time N/A
Altitude 24000
Route KEMIR2A KEMIR A411 ANB/N0472F380 UM134 LUXUR/N0473F370 M134 VLC/N0362F130 N733 CJN/N0474F370 N733 ZMR L155 ADORO/N0390F190 A43 CANAR
Aircraft A346/H-SDE2E3FGHIJ3J4J5M1RWXY/LB1D1

Departure

Time 2026-05-09 01:03
Airport Tunis Carthage International Airport (DTTA)

Arrival

Time N/A
Airport Francisco de Sá Carneiro Airport (LPPR)
Time Latitude Longitude Altitude Speed Heading
2026-05-09 00:35 36.84074 10.21964 22 ft 0 kts 104°
2026-05-09 00:49 36.84072 10.21968 22 ft 1 kts 125°
2026-05-09 00:49 36.84063 10.21972 22 ft 2 kts 180°
2026-05-09 00:50 36.84052 10.21970 22 ft 0 kts 189°
2026-05-09 00:56 36.84047 10.21970 22 ft 0 kts 183°
2026-05-09 00:58 36.84046 10.21970 22 ft 1 kts 182°
2026-05-09 00:58 36.84029 10.21966 22 ft 3 kts 193°
2026-05-09 00:59 36.83995 10.21955 22 ft 6 kts 197°
2026-05-09 00:59 36.83941 10.21929 21 ft 9 kts 192°
2026-05-09 00:59 36.83891 10.21958 20 ft 8 kts 103°
2026-05-09 00:59 36.83876 10.22037 19 ft 10 kts 106°
2026-05-09 01:00 36.83862 10.22144 18 ft 13 kts 91°
2026-05-09 01:00 36.83868 10.22202 18 ft 0 kts 74°
2026-05-09 01:01 36.83873 10.22222 18 ft 4 kts 71°
2026-05-09 01:01 36.83891 10.22272 18 ft 7 kts 59°
2026-05-09 01:01 36.83930 10.22334 18 ft 10 kts 53°
2026-05-09 01:02 36.83987 10.22390 18 ft 10 kts 19°
2026-05-09 01:02 36.84047 10.22414 18 ft 0 kts 13°
2026-05-09 01:02 36.84079 10.22423 18 ft 26 kts 12°
2026-05-09 01:03 36.84512 10.22543 18 ft 102 kts 11°
2026-05-09 01:03 36.85438 10.22790 27 ft 168 kts 12°
2026-05-09 01:03 36.86652 10.23119 416 ft 188 kts 12°
2026-05-09 01:03 36.87902 10.23500 1200 ft 189 kts 14°
2026-05-09 01:04 36.89201 10.23878 1766 ft 196 kts 12°
2026-05-09 01:04 36.90548 10.24218 2365 ft 199 kts 11°
2026-05-09 01:04 36.91888 10.24558 3078 ft 201 kts 12°
2026-05-09 01:04 36.93272 10.24919 3685 ft 210 kts 12°
2026-05-09 01:05 36.94768 10.25175 4159 ft 225 kts 352°
2026-05-09 01:05 36.96193 10.24326 4715 ft 235 kts 311°
2026-05-09 01:05 36.96501 10.20483 5974 ft 247 kts 235°
2026-05-09 01:06 36.95365 10.18834 6624 ft 255 kts 226°
2026-05-09 01:06 36.94121 10.17215 7255 ft 264 kts 226°
2026-05-09 01:06 36.92818 10.15544 7886 ft 274 kts 225°
2026-05-09 01:06 36.91478 10.13816 8515 ft 283 kts 229°
2026-05-09 01:07 36.90472 10.11701 9143 ft 290 kts 251°
2026-05-09 01:07 36.89935 10.09220 9661 ft 303 kts 257°
2026-05-09 01:07 36.89479 10.06559 9880 ft 327 kts 258°
2026-05-09 01:07 36.88977 10.03706 9884 ft 341 kts 257°
2026-05-09 01:08 36.88436 10.00805 9889 ft 344 kts 256°
2026-05-09 01:08 36.87871 9.97904 9892 ft 344 kts 256°
2026-05-09 01:08 36.87295 9.95017 9893 ft 344 kts 256°
2026-05-09 01:08 36.86709 9.92116 9894 ft 344 kts 256°
2026-05-09 01:09 36.86121 9.89225 9895 ft 344 kts 256°
2026-05-09 01:09 36.85533 9.86293 10130 ft 354 kts 257°
2026-05-09 01:09 36.85086 9.83277 10992 ft 354 kts 262°
2026-05-09 01:09 36.84847 9.80242 11866 ft 354 kts 267°
2026-05-09 01:10 36.84743 9.77190 12601 ft 358 kts 268°
2026-05-09 01:10 36.84659 9.74045 13319 ft 362 kts 268°
2026-05-09 01:10 36.84578 9.70915 14023 ft 366 kts 268°
2026-05-09 01:10 36.84494 9.67754 14714 ft 369 kts 268°
2026-05-09 01:11 36.84407 9.64555 15387 ft 373 kts 268°
2026-05-09 01:11 36.84315 9.61298 16051 ft 377 kts 268°
2026-05-09 01:11 36.84222 9.58020 16718 ft 380 kts 268°
2026-05-09 01:11 36.84128 9.54797 17618 ft 375 kts 268°
2026-05-09 01:12 36.84034 9.51569 18550 ft 369 kts 268°
2026-05-09 01:12 36.83939 9.48385 19484 ft 362 kts 268°
2026-05-09 01:12 36.83847 9.45315 20403 ft 354 kts 268°
2026-05-09 01:12 36.83755 9.42256 21175 ft 351 kts 268°
2026-05-09 01:13 36.83679 9.39221 21661 ft 356 kts 269°
2026-05-09 01:13 36.83614 9.36095 21874 ft 369 kts 269°
2026-05-09 01:13 36.83546 9.32783 21882 ft 388 kts 268°
2026-05-09 01:13 36.83473 9.29287 21885 ft 405 kts 268°
2026-05-09 01:14 36.83397 9.25774 21883 ft 400 kts 268°
2026-05-09 01:14 36.83321 9.22384 21885 ft 386 kts 268°
2026-05-09 01:14 36.83247 9.19111 21886 ft 371 kts 268°
2026-05-09 01:14 36.83172 9.15902 21888 ft 364 kts 268°
2026-05-09 01:15 36.83098 9.12771 21889 ft 364 kts 268°
2026-05-09 01:15 36.83023 9.09595 21889 ft 364 kts 268°
2026-05-09 01:15 36.82947 9.06463 21889 ft 364 kts 268°
2026-05-09 01:15 36.82868 9.03289 21889 ft 364 kts 268°
2026-05-09 01:16 36.82790 9.00164 21889 ft 364 kts 268°
2026-05-09 01:16 36.82742 8.97005 21889 ft 364 kts 271°
2026-05-09 01:16 36.82799 8.93837 21889 ft 364 kts 271°
2026-05-09 01:17 36.82948 8.87556 21889 ft 364 kts 272°
2026-05-09 01:17 36.83022 8.84361 21889 ft 364 kts 272°
2026-05-09 01:17 36.83094 8.81218 21889 ft 364 kts 272°
2026-05-09 01:17 36.83164 8.78074 21889 ft 364 kts 272°
2026-05-09 01:18 36.83233 8.74935 21889 ft 364 kts 271°
2026-05-09 01:18 36.83301 8.71789 21889 ft 364 kts 271°
2026-05-09 01:18 36.83368 8.68619 21889 ft 364 kts 271°
2026-05-09 01:18 36.83434 8.65492 21889 ft 364 kts 271°
2026-05-09 01:19 36.83469 8.62308 21888 ft 364 kts 270°
2026-05-09 01:19 36.83469 8.59180 21889 ft 364 kts 270°
2026-05-09 01:19 36.83464 8.56025 21889 ft 364 kts 270°
2026-05-09 01:19 36.83459 8.52844 21889 ft 364 kts 270°
2026-05-09 01:20 36.83455 8.49699 21889 ft 364 kts 270°
2026-05-09 01:20 36.83452 8.46524 21889 ft 364 kts 270°
2026-05-09 01:20 36.83450 8.43357 21889 ft 364 kts 270°
2026-05-09 01:20 36.83446 8.40212 21888 ft 364 kts 270°
2026-05-09 01:21 36.83442 8.37075 21888 ft 364 kts 270°
2026-05-09 01:21 36.83438 8.33929 21888 ft 364 kts 270°
2026-05-09 01:21 36.83433 8.30738 21889 ft 364 kts 270°
2026-05-09 01:21 36.83427 8.27607 21889 ft 364 kts 270°
2026-05-09 01:22 36.83420 8.24469 21889 ft 364 kts 270°
2026-05-09 01:22 36.83413 8.21311 21889 ft 364 kts 270°
2026-05-09 01:22 36.83405 8.18149 21889 ft 364 kts 270°
2026-05-09 01:22 36.83395 8.14974 21889 ft 364 kts 270°
2026-05-09 01:23 36.83385 8.11839 21889 ft 364 kts 270°
2026-05-09 01:23 36.83374 8.08695 21889 ft 364 kts 270°
2026-05-09 01:23 36.83362 8.05513 21889 ft 364 kts 270°
2026-05-09 01:23 36.83350 8.02376 21889 ft 364 kts 270°
2026-05-09 01:24 36.83337 7.99203 21889 ft 364 kts 270°
2026-05-09 01:24 36.83322 7.96065 21889 ft 364 kts 270°
2026-05-09 01:24 36.83307 7.92930 21889 ft 364 kts 270°
2026-05-09 01:24 36.83290 7.89743 21889 ft 364 kts 270°
2026-05-09 01:25 36.83274 7.86613 21889 ft 364 kts 270°
2026-05-09 01:25 36.83328 7.83463 21888 ft 364 kts 276°
2026-05-09 01:25 36.83741 7.80363 21889 ft 364 kts 284°
2026-05-09 01:25 36.84538 7.77339 21892 ft 364 kts 291°
2026-05-09 01:26 36.85480 7.74419 21890 ft 364 kts 292°
2026-05-09 01:26 36.86441 7.71519 21889 ft 364 kts 292°
2026-05-09 01:26 36.87403 7.68613 21889 ft 364 kts 292°
2026-05-09 01:26 36.88375 7.65661 21889 ft 364 kts 292°
2026-05-09 01:27 36.89328 7.62754 21889 ft 364 kts 292°
2026-05-09 01:27 36.90278 7.59843 21889 ft 364 kts 292°
2026-05-09 01:27 36.91227 7.56927 21889 ft 364 kts 292°
2026-05-09 01:27 36.92177 7.54004 21889 ft 364 kts 292°
2026-05-09 01:28 36.93130 7.51067 21888 ft 364 kts 292°
2026-05-09 01:28 36.94076 7.48147 21888 ft 364 kts 292°
2026-05-09 01:28 36.95032 7.45191 21888 ft 364 kts 292°
2026-05-09 01:28 36.95971 7.42286 21888 ft 364 kts 292°
2026-05-09 01:29 36.96927 7.39325 21888 ft 364 kts 292°
2026-05-09 01:29 36.97875 7.36385 21888 ft 364 kts 292°
2026-05-09 01:29 36.98817 7.33459 21889 ft 364 kts 291°
2026-05-09 01:29 36.99782 7.30448 21889 ft 364 kts 291°
2026-05-09 01:30 37.00724 7.27506 21889 ft 364 kts 291°
2026-05-09 01:30 37.01659 7.24588 21889 ft 364 kts 291°
2026-05-09 01:30 37.02606 7.21632 21889 ft 364 kts 291°
2026-05-09 01:30 37.03541 7.18710 21889 ft 364 kts 291°
2026-05-09 01:31 37.04476 7.15788 21889 ft 364 kts 291°
2026-05-09 01:31 37.05422 7.12831 21889 ft 364 kts 291°
2026-05-09 01:31 37.06361 7.09891 21889 ft 364 kts 291°
2026-05-09 01:31 37.07292 7.06975 21889 ft 364 kts 291°
2026-05-09 01:32 37.08229 7.04034 21889 ft 364 kts 291°
2026-05-09 01:32 37.09169 7.01084 21889 ft 364 kts 291°
2026-05-09 01:32 37.10300 6.97534 21889 ft 364 kts 292°
2026-05-09 01:32 37.12597 6.90401 21889 ft 364 kts 292°
2026-05-09 01:33 37.14553 6.84269 21893 ft 397 kts 292°
2026-05-09 01:33 37.16618 6.77755 21888 ft 410 kts 291°
2026-05-09 01:33 37.18731 6.71067 21889 ft 411 kts 291°
2026-05-09 01:33 37.20831 6.64399 21889 ft 411 kts 291°
2026-05-09 01:34 37.22898 6.57815 21889 ft 411 kts 291°
2026-05-09 01:34 37.24987 6.51146 21889 ft 411 kts 291°
2026-05-09 01:34 37.27084 6.44435 21889 ft 411 kts 291°
2026-05-09 01:34 37.29147 6.37820 21889 ft 411 kts 291°
2026-05-09 01:35 37.31227 6.31118 21889 ft 411 kts 291°
2026-05-09 01:35 37.33295 6.24431 21889 ft 411 kts 291°
2026-05-09 01:35 37.35323 6.17871 21889 ft 411 kts 291°
2026-05-09 01:35 37.37390 6.11175 21889 ft 411 kts 291°
2026-05-09 01:36 37.39452 6.04481 21889 ft 411 kts 291°
2026-05-09 01:36 37.41505 5.97802 21889 ft 411 kts 291°
2026-05-09 01:36 37.43532 5.91193 21889 ft 411 kts 291°
2026-05-09 01:36 37.45597 5.84444 21889 ft 411 kts 291°
2026-05-09 01:37 37.47627 5.77791 21889 ft 411 kts 291°
2026-05-09 01:37 37.49681 5.71045 21889 ft 411 kts 291°
2026-05-09 01:37 37.51726 5.64313 21889 ft 411 kts 291°
2026-05-09 01:37 37.53739 5.57670 21889 ft 411 kts 291°
2026-05-09 01:38 37.56201 5.51191 21883 ft 411 kts 290°
2026-05-09 01:38 37.57993 5.44313 21888 ft 411 kts 289°
2026-05-09 01:38 37.59848 5.37590 21889 ft 411 kts 290°
2026-05-09 01:38 37.61842 5.30850 21770 ft 409 kts 290°
2026-05-09 01:39 37.63792 5.24247 21866 ft 411 kts 290°
2026-05-09 01:39 37.65752 5.17643 21884 ft 411 kts 290°
2026-05-09 01:39 37.67713 5.11054 21888 ft 411 kts 290°
2026-05-09 01:39 37.69687 5.04415 21889 ft 411 kts 290°
2026-05-09 01:40 37.71664 4.97847 21889 ft 411 kts 292°
2026-05-09 01:40 37.73862 4.91153 21889 ft 411 kts 292°
2026-05-09 01:40 37.76051 4.84510 21889 ft 411 kts 292°
2026-05-09 01:40 37.78234 4.77828 21889 ft 411 kts 292°
2026-05-09 01:41 37.80379 4.71237 21889 ft 411 kts 292°
2026-05-09 01:41 37.82536 4.64587 21889 ft 411 kts 292°
2026-05-09 01:41 37.84707 4.57878 21892 ft 419 kts 292°
2026-05-09 01:41 37.86972 4.50855 21888 ft 436 kts 292°
2026-05-09 01:42 37.89242 4.43804 21889 ft 445 kts 292°
2026-05-09 01:42 37.91606 4.36440 21888 ft 449 kts 292°
2026-05-09 01:42 37.93906 4.29242 21889 ft 449 kts 292°
2026-05-09 01:42 37.96205 4.22023 21889 ft 450 kts 292°
2026-05-09 01:43 37.98543 4.14678 21889 ft 450 kts 292°
2026-05-09 01:43 38.00878 4.07328 21889 ft 450 kts 292°
2026-05-09 01:43 38.03204 3.99992 22516 ft 457 kts 292°
2026-05-09 01:43 38.05550 3.92572 23704 ft 451 kts 292°
2026-05-09 01:44 38.07879 3.85186 23882 ft 450 kts 292°
2026-05-09 01:44 38.10107 3.78105 23886 ft 450 kts 292°
2026-05-09 01:44 38.12403 3.70867 23888 ft 450 kts 292°
2026-05-09 01:44 38.14693 3.63600 23888 ft 450 kts 292°
2026-05-09 01:45 38.16988 3.56249 23888 ft 450 kts 292°
2026-05-09 01:45 38.19292 3.48832 24023 ft 455 kts 292°
2026-05-09 01:45 38.21556 3.41525 25554 ft 443 kts 291°
2026-05-09 01:45 38.23671 3.34372 27408 ft 425 kts 290°
2026-05-09 01:46 38.25671 3.27473 29090 ft 409 kts 290°
2026-05-09 01:46 38.27608 3.20819 30497 ft 397 kts 290°
2026-05-09 01:46 38.29572 3.14334 31701 ft 388 kts 294°
2026-05-09 01:46 38.31815 3.08312 32800 ft 378 kts 296°
2026-05-09 01:47 38.34124 3.02260 33370 ft 383 kts 296°
2026-05-09 01:47 38.36459 2.96106 33855 ft 389 kts 296°
2026-05-09 01:47 38.38833 2.89824 33877 ft 408 kts 296°
2026-05-09 01:47 38.41356 2.83140 33881 ft 427 kts 296°
2026-05-09 01:48 38.43941 2.76294 33881 ft 447 kts 296°
2026-05-09 01:48 38.46684 2.69004 33881 ft 466 kts 296°
2026-05-09 01:48 38.49515 2.61451 33880 ft 483 kts 296°
2026-05-09 01:48 38.52419 2.53681 33879 ft 496 kts 296°
2026-05-09 01:49 38.58336 2.37831 33879 ft 498 kts 296°
2026-05-09 01:49 38.64215 2.21937 33879 ft 498 kts 295°
2026-05-09 01:50 38.70093 2.05995 33879 ft 498 kts 295°
2026-05-09 01:50 38.75950 1.90018 33903 ft 500 kts 295°
2026-05-09 01:51 38.78888 1.81967 34182 ft 499 kts 295°
2026-05-09 01:51 38.81817 1.73923 34192 ft 495 kts 295°
2026-05-09 01:51 38.87570 1.58053 34193 ft 495 kts 295°
2026-05-09 01:52 38.93130 1.41870 34193 ft 495 kts 292°
2026-05-09 01:52 38.98075 1.25389 34194 ft 495 kts 291°
2026-05-09 01:53 39.02985 1.08950 34194 ft 495 kts 291°
2026-05-09 01:53 39.07881 0.92498 34194 ft 495 kts 291°
2026-05-09 01:54 39.12802 0.75950 34194 ft 496 kts 291°
2026-05-09 01:54 39.17623 0.59591 34194 ft 497 kts 291°
2026-05-09 01:55 39.22426 0.43141 34194 ft 497 kts 291°
2026-05-09 01:55 39.27157 0.26863 34194 ft 497 kts 290°
2026-05-09 01:56 39.31887 0.10429 34194 ft 497 kts 290°
2026-05-09 01:56 39.36661 -0.06226 34194 ft 497 kts 290°
2026-05-09 01:57 39.41257 -0.22349 34194 ft 497 kts 290°
2026-05-09 01:57 39.45611 -0.37760 34194 ft 497 kts 290°
2026-05-09 01:58 39.51073 -0.53969 34193 ft 497 kts 299°
2026-05-09 01:58 39.57888 -0.69371 34194 ft 497 kts 300°
2026-05-09 01:59 39.64667 -0.84796 34194 ft 497 kts 300°
2026-05-09 01:59 39.71457 -1.00321 34194 ft 497 kts 300°
2026-05-09 02:00 39.78209 -1.15839 34194 ft 497 kts 300°
2026-05-09 02:00 39.84960 -1.31365 34193 ft 497 kts 300°
2026-05-09 02:01 39.91745 -1.47097 34193 ft 497 kts 300°
2026-05-09 02:01 39.98468 -1.62743 34193 ft 497 kts 300°
2026-05-09 02:02 40.05058 -1.78215 34194 ft 497 kts 299°
2026-05-09 02:02 40.11568 -1.93521 34194 ft 497 kts 299°
2026-05-09 02:03 40.18256 -2.09205 34194 ft 497 kts 299°
2026-05-09 02:03 40.24916 -2.24930 34194 ft 497 kts 299°
2026-05-09 02:04 40.31488 -2.40660 34194 ft 497 kts 299°
2026-05-09 02:04 40.38068 -2.56538 34194 ft 497 kts 298°
2026-05-09 02:05 40.44395 -2.72649 34194 ft 497 kts 297°
2026-05-09 02:05 40.50677 -2.88779 34194 ft 497 kts 297°
2026-05-09 02:06 40.56959 -3.04951 34194 ft 497 kts 297°
2026-05-09 02:07 40.66288 -3.29121 34194 ft 497 kts 297°
2026-05-09 02:07 40.72414 -3.45101 34193 ft 497 kts 297°
2026-05-09 02:08 40.78558 -3.61218 34193 ft 497 kts 297°
2026-05-09 02:08 40.84541 -3.77037 34194 ft 497 kts 296°
2026-05-09 02:09 40.90683 -3.93341 34194 ft 497 kts 296°
2026-05-09 02:09 40.96827 -4.09730 34194 ft 497 kts 296°
2026-05-09 02:10 41.02881 -4.25967 34193 ft 497 kts 296°
2026-05-09 02:10 41.08960 -4.42330 34193 ft 497 kts 296°
2026-05-09 02:11 41.14963 -4.58505 34194 ft 497 kts 296°
2026-05-09 02:11 41.20954 -4.74825 34194 ft 497 kts 296°
2026-05-09 02:12 41.26925 -4.91236 34194 ft 497 kts 296°
2026-05-09 02:12 41.32937 -5.07785 34194 ft 497 kts 296°
2026-05-09 02:13 41.38918 -5.24363 34194 ft 497 kts 296°
2026-05-09 02:13 41.44800 -5.40791 34194 ft 497 kts 296°
2026-05-09 02:14 41.50587 -5.57059 34192 ft 466 kts 296°
2026-05-09 02:14 41.52498 -5.65043 34194 ft 452 kts 277°
2026-05-09 02:14 41.52484 -5.73349 34196 ft 452 kts 264°
2026-05-09 02:15 41.51190 -5.89886 34194 ft 446 kts 264°
2026-05-09 02:15 41.49976 -6.06144 34192 ft 445 kts 264°
2026-05-09 02:15 41.49364 -6.14304 33558 ft 438 kts 264°
2026-05-09 02:16 41.48761 -6.22256 32628 ft 434 kts 264°
2026-05-09 02:16 41.48160 -6.30147 31795 ft 428 kts 264°
2026-05-09 02:16 41.47563 -6.37979 30934 ft 423 kts 264°
2026-05-09 02:16 41.46961 -6.45758 29934 ft 421 kts 264°
2026-05-09 02:17 41.46356 -6.53493 28936 ft 419 kts 264°
2026-05-09 02:17 41.45753 -6.61121 27919 ft 419 kts 264°
2026-05-09 02:17 41.45139 -6.68829 26721 ft 422 kts 264°
2026-05-09 02:17 41.44539 -6.76316 25563 ft 424 kts 264°
2026-05-09 02:18 41.43924 -6.83901 24395 ft 425 kts 264°
2026-05-09 02:18 41.43285 -6.91718 23192 ft 426 kts 264°
2026-05-09 02:18 41.42680 -6.99059 22062 ft 426 kts 264°
2026-05-09 02:18 41.42039 -7.06756 20876 ft 425 kts 264°
2026-05-09 02:19 41.41384 -7.14568 19669 ft 424 kts 264°
2026-05-09 02:19 41.40726 -7.22343 18463 ft 421 kts 263°
2026-05-09 02:19 41.40081 -7.29880 17287 ft 419 kts 263°
2026-05-09 02:19 41.39426 -7.37480 16187 ft 411 kts 263°
2026-05-09 02:20 41.38817 -7.44705 14995 ft 377 kts 265°
2026-05-09 02:20 41.38664 -7.51384 13801 ft 351 kts 271°
2026-05-09 02:20 41.38781 -7.57721 12596 ft 332 kts 272°
2026-05-09 02:20 41.38888 -7.63627 11578 ft 311 kts 271°
2026-05-09 02:21 41.38978 -7.69028 10494 ft 300 kts 271°
2026-05-09 02:21 41.39064 -7.74520 9217 ft 295 kts 271°
2026-05-09 02:21 41.39144 -7.79825 8001 ft 290 kts 271°
2026-05-09 02:21 41.39223 -7.85167 6774 ft 285 kts 271°
2026-05-09 02:22 41.39297 -7.90375 5578 ft 280 kts 271°
2026-05-09 02:22 41.39367 -7.95478 4460 ft 274 kts 271°
2026-05-09 02:22 41.39434 -8.00522 4221 ft 275 kts 271°
2026-05-09 02:22 41.39500 -8.05601 4213 ft 275 kts 271°
2026-05-09 02:23 41.39563 -8.10692 4212 ft 275 kts 271°
2026-05-09 02:23 41.39624 -8.15757 4210 ft 275 kts 271°
2026-05-09 02:23 41.39682 -8.20819 4210 ft 275 kts 271°
2026-05-09 02:23 41.39739 -8.25863 4211 ft 275 kts 271°
2026-05-09 02:24 41.39793 -8.30906 4211 ft 275 kts 271°
2026-05-09 02:24 41.39845 -8.35956 4211 ft 275 kts 271°
2026-05-09 02:24 41.39894 -8.41081 4208 ft 274 kts 271°
2026-05-09 02:24 41.39941 -8.46059 3605 ft 272 kts 271°
2026-05-09 02:25 41.39979 -8.50435 2902 ft 258 kts 271°
2026-05-09 02:25 41.39999 -8.52772 2814 ft 244 kts 271°
2026-05-09 02:25 41.40016 -8.54954 2809 ft 230 kts 271°
2026-05-09 02:25 41.40032 -8.57093 2808 ft 227 kts 271°
2026-05-09 02:26 41.40048 -8.59177 2808 ft 227 kts 271°
2026-05-09 02:26 41.40064 -8.61305 2808 ft 227 kts 271°
2026-05-09 02:26 41.40079 -8.63407 2808 ft 227 kts 271°
2026-05-09 02:26 41.40094 -8.65450 2802 ft 216 kts 270°
2026-05-09 02:27 41.40109 -8.67397 2798 ft 205 kts 270°
2026-05-09 02:27 41.40102 -8.69250 2740 ft 197 kts 261°
2026-05-09 02:27 41.39613 -8.70871 2706 ft 187 kts 227°
2026-05-09 02:27 41.38565 -8.71856 2714 ft 186 kts 195°
2026-05-09 02:28 41.37299 -8.71957 2717 ft 186 kts 164°
2026-05-09 02:28 41.36056 -8.71422 2629 ft 186 kts 160°
2026-05-09 02:28 41.34831 -8.70904 2555 ft 186 kts 164°
2026-05-09 02:28 41.33574 -8.70449 2528 ft 186 kts 166°
2026-05-09 02:29 41.32315 -8.70084 2477 ft 187 kts 169°
2026-05-09 02:29 41.31052 -8.69788 2161 ft 185 kts 169°
2026-05-09 02:29 41.29813 -8.69468 1715 ft 183 kts 166°
2026-05-09 02:29 41.28547 -8.69127 1013 ft 194 kts 169°
2026-05-09 02:30 41.27243 -8.68761 742 ft 177 kts 168°
2026-05-09 02:30 41.26065 -8.68486 968 ft 170 kts 168°
2026-05-09 02:30 41.24920 -8.68152 994 ft 169 kts 168°
2026-05-09 02:30 41.23762 -8.67854 993 ft 168 kts 168°
2026-05-09 02:31 41.22612 -8.67547 992 ft 168 kts 173°
2026-05-09 02:31 41.21476 -8.67250 997 ft 168 kts 168°
2026-05-09 02:31 41.20320 -8.66952 997 ft 168 kts 168°
2026-05-09 02:31 41.19176 -8.66652 997 ft 168 kts 168°
2026-05-09 02:32 41.18017 -8.66348 997 ft 168 kts 168°
2026-05-09 02:32 41.16873 -8.66049 1008 ft 171 kts 168°
2026-05-09 02:32 41.15640 -8.65726 1292 ft 191 kts 168°
2026-05-09 02:32 41.14299 -8.65374 1876 ft 206 kts 168°
2026-05-09 02:33 41.12882 -8.65003 2631 ft 214 kts 168°
2026-05-09 02:33 41.11388 -8.64611 2940 ft 225 kts 169°
2026-05-09 02:33 41.09862 -8.64083 2988 ft 227 kts 150°
2026-05-09 02:33 41.08743 -8.62674 2996 ft 227 kts 117°
2026-05-09 02:34 41.08385 -8.60649 2999 ft 227 kts 83°
2026-05-09 02:34 41.08928 -8.58721 2999 ft 227 kts 50°
2026-05-09 02:34 41.10167 -8.57516 2994 ft 220 kts 20°
2026-05-09 02:34 41.11608 -8.57009 2870 ft 212 kts
2026-05-09 02:35 41.13074 -8.56778 2595 ft 213 kts
2026-05-09 02:35 41.14563 -8.56747 2273 ft 216 kts 357°
2026-05-09 02:35 41.16040 -8.56947 2022 ft 215 kts 347°
2026-05-09 02:35 41.17414 -8.57636 1916 ft 202 kts 329°
2026-05-09 02:36 41.18468 -8.58801 1908 ft 199 kts 310°
2026-05-09 02:36 41.19189 -8.60359 1909 ft 198 kts 292°
2026-05-09 02:36 41.19521 -8.62130 1911 ft 198 kts 275°
2026-05-09 02:36 41.19462 -8.63962 1910 ft 198 kts 256°
2026-05-09 02:37 41.18887 -8.65610 1913 ft 198 kts 234°
2026-05-09 02:37 41.17973 -8.66985 1915 ft 198 kts 222°
2026-05-09 02:37 41.16763 -8.67784 1903 ft 198 kts 187°
2026-05-09 02:37 41.15421 -8.67451 1915 ft 198 kts 155°
2026-05-09 02:38 41.14149 -8.66802 1911 ft 198 kts 173°
2026-05-09 02:38 41.12796 -8.67109 1909 ft 198 kts 201°
2026-05-09 02:38 41.11534 -8.67851 1913 ft 198 kts 206°
2026-05-09 02:38 41.10265 -8.68561 1911 ft 198 kts 200°
2026-05-09 02:39 41.08964 -8.69163 1910 ft 198 kts 198°
2026-05-09 02:39 41.07711 -8.69909 1898 ft 198 kts 218°
2026-05-09 02:39 41.06994 -8.71411 1887 ft 198 kts 257°
2026-05-09 02:39 41.07148 -8.73206 1891 ft 198 kts 296°
2026-05-09 02:40 41.08103 -8.74472 1898 ft 198 kts 333°
2026-05-09 02:40 41.09375 -8.75208 1918 ft 199 kts 332°
2026-05-09 02:40 41.10534 -8.76165 1915 ft 198 kts 328°
2026-05-09 02:40 41.11748 -8.77055 1911 ft 198 kts 333°
2026-05-09 02:41 41.13041 -8.77910 1910 ft 198 kts 333°
2026-05-09 02:41 41.18459 -8.81343 1908 ft 198 kts 336°